Weather History for Narsarsuaq, Greenland

Change the Weather History Date:

Tuesday, May 29, 2012

  Actual Average Record
Temperature  
Mean Temperature 70 °F -  
Max Temperature 76 °F 56 °F 76 °F (2012)
Min Temperature 64 °F 41 °F 33 °F (1997)
Cooling Degree Days 5    
Growing Degree Days 20 (Base 50)    
Moisture  
Dew Point 38 °F    
Average Humidity 28    
Maximum Humidity 42    
Minimum Humidity 13    
Precipitation  
Precipitation 0.00 in 0.07 in - ()
Sea Level Pressure  
Sea Level Pressure 30.04 in    
Wind  
Wind Speed 19 mph ()    
Max Wind Speed 25 mph    
Max Gust Speed -    
Visibility 7.1 miles    
Events      
Averages and records for this station are not official NWS values.
T = Trace of Precipitation, MM = Missing Value Source: Averaged Metar Reports

Daily Weather History Graph

Daily Weather History Graph

Search for Another Location

Airport:

Trip Planner

Search our weather history database for the weather conditions in past years. The results will help you decide how hot, cold, wet, or windy it might be!

Date:

Astronomy

May. 29, 2012 Rise Set
Actual Time 3:43 AM WGST 10:16 PM WGST
Civil Twilight 2:08 AM WGST 11:54 PM WGST
Nautical Twilight Sun does not rise Sun does not rise
Astronomical Twilight Sun does not rise Sun does not rise
Moon 1:47 PM WGST (5/29) 1:33 AM WGST (5/29)
Length of Visible Light 21h 46m
Length of Day
18h 33m
First Quarter, 58% of the Moon is Illuminated
May 29
First Quarter
Jun 4
Full
Jun 11
Last Quarter
Jun 19
New
Jun 27
First Quarter

Hourly Weather History & Observations

Time (WGST) Temp. Dew Point Humidity Pressure Visibility Wind Dir Wind Speed Gust Speed Precip Events Conditions
1:00 AM 67 °F 35 °F 19% 30.02 in 31 mi East 18.4 mph - -  
3:50 AM 64.4 °F 41.0 °F 42% 30.01 in 6.2 mi East 21.9 mph - N/A   Scattered Clouds
4:00 AM 64 °F 37 °F 26% 30.04 in 22 mi East 25.3 mph - -   Scattered Clouds
4:50 AM 64.4 °F 39.2 °F 40% 30.04 in 6.2 mi East 25.3 mph - N/A   Partly Cloudy
5:50 AM 64.4 °F 39.2 °F 40% 30.04 in 6.2 mi ENE 19.6 mph - N/A   Partly Cloudy
6:50 AM 66.2 °F 39.2 °F 37% 30.04 in 6.2 mi ENE 18.4 mph - N/A   Partly Cloudy
7:00 AM 66 °F 35 °F 21% 30.06 in 22 mi ENE 18.4 mph - -  
7:50 AM 68.0 °F 37.4 °F 33% 30.04 in 6.2 mi East 17.3 mph - N/A   Partly Cloudy
8:50 AM 68.0 °F 37.4 °F 33% 30.06 in 6.2 mi East 23.0 mph - N/A   Clear
9:50 AM 68.0 °F 37.4 °F 33% 30.04 in 6.2 mi ENE 23.0 mph - N/A   Partly Cloudy
10:00 AM 69 °F 34 °F 17% 30.06 in 14 mi East 24.2 mph - -  
10:50 AM 71.6 °F 37.4 °F 29% 30.04 in 6.2 mi ENE 19.6 mph - N/A   Scattered Clouds
11:50 AM 75.2 °F 39.2 °F 27% 30.04 in 6.2 mi ENE 24.2 mph - N/A   Mostly Cloudy
12:50 PM 75.2 °F 39.2 °F 27% 30.04 in 6.2 mi ENE 23.0 mph - N/A   Mostly Cloudy
1:00 PM 76 °F 36 °F 13% 30.04 in 13 mi ENE 23.0 mph - -  
1:50 PM 71.6 °F 39.2 °F 31% 30.04 in 6.2 mi ENE 24.2 mph - N/A   Scattered Clouds
2:50 PM 71.6 °F 41.0 °F 33% 30.04 in 6.2 mi East 21.9 mph - N/A   Scattered Clouds
3:50 PM 73.4 °F 41.0 °F 31% 30.04 in 6.2 mi ENE 23.0 mph - N/A   Scattered Clouds
4:00 PM 73 °F 37 °F 17% 30.05 in 22 mi ENE 23.0 mph - -  
4:50 PM 73.4 °F 41.0 °F 31% 30.04 in 6.2 mi ENE 20.7 mph - N/A   Scattered Clouds
7:00 PM 73 °F 36 °F 16% 30.04 in 25 mi ENE 17.3 mph - -  
10:00 PM 68 °F 36 °F 20% 30.04 in 28 mi ENE 16.1 mph - -